RH
35 32 31 26 27 28 24 17 14 12 12 13 15 16 21 27 31 37 42 43 43 41 40 41 42 41 38 34 32 30 29 28 27 22 18 16 13 10 8 7 6 6 4
36 36 30 22 21 17 14 13 12 12 13 15 16 18 26 32 35 42 44 46 45 42 38 35 39 38 35 35 33 31 30 28 23 18 15 13 10 7 5 4 3 2 4
34 29 22 17 16 14 15 14 12 13 15 16 17 23 33 37 43 42 47 48 46 38 33 40 39 37 39 38 34 31 29 23 18 14 12 9 7 5 3 2 2 3 6
25 26 22 19 15 14 13 13 14 15 16 16 21 33 38 46 46 44 52 50 48 37 46 39 39 43 41 36 30 27 22 19 15 12 8 6 4 3 2 2 3 4 5
26 22 20 18 16 14 14 15 16 16 16 19 31 40 48 54 46 55 52 47 39 49 42 40 45 44 36 32 30 24 20 17 13 9 6 5 3 2 4 4 3 4 4
32 27 20 15 16 16 16 17 16 16 19 28 39 51 57 54 58 50 42 42 49 44 41 46 48 40 36 34 29 23 19 16 10 6 5 4 2 3 5 4 3 3 7
29 27 24 18 17 18 18 17 17 20 28 40 51 62 69 62 46 41 48 56 54 44 45 52 47 41 38 33 27 21 18 12 7 5 4 2 4 5 4 3 3 3 8
36 33 27 19 17 16 17 22 22 27 42 55 67 71 61 46 41 46 59 61 50 48 52 52 46 40 36 32 24 20 14 8 6 5 3 3 5 6 4 4 4 4 8
51 32 23 18 17 18 22 28 35 40 54 68 72 70 58 39 47 56 62 58 52 53 53 48 42 40 38 30 24 16 9 6 6 4 3 4 6 5 4 4 5 6 10
34 29 23 27 31 21 23 34 44 54 72 76 70 69 46 43 57 65 65 61 58 58 56 47 44 44 36 30 21 12 8 6 5 3 4 6 6 4 4 5 6 8 12
35 34 45 47 31 29 27 35 64 78 75 75 70 49 36 53 62 62 66 68 65 64 59 49 48 41 37 27 18 11 8 7 3 3 5 9 7 4 4 5 7 10 21
39 39 45 56 60 49 39 54 67 77 73 80 59 36 39 53 57 62 73 70 71 72 60 54 47 42 33 23 15 9 8 4 4 4 12 10 6 4 4 6 9 13 51
66 69 43 51 66 85 56 66 75 78 83 72 48 44 49 53 61 73 73 73 78 73 61 55 48 39 27 21 14 10 6 4 4 10 17 11 6 4 5 8 12 42 43
66 71 62 57 65 88 88 92 96 92 85 66 44 50 55 64 71 75 75 78 77 68 64 55 45 33 25 19 12 9 4 4 6 24 25 13 6 4 6 10 28 44 26
79 80 80 88 92 95 98 98 98 88 88 61 45 58 70 70 81 78 82 82 76 69 62 51 41 31 26 18 12 6 4 5 12 38 35 18 6 6 8 12 45 30 22
75 84 88 98 99 98 98 100 96 84 90 43 58 75 79 85 82 82 82 82 80 70 59 48 36 32 26 16 11 5 6 5 17 42 55 37 8 7 10 24 41 26 20
74 82 91 85 89 96 99 100 96 95 50 55 77 88 90 88 85 81 82 85 77 67 55 45 34 35 24 14 8 5 6 7 28 47 62 44 17 7 10 30 37 30 23
64 85 84 82 86 100 98 98 96 58 58 74 94 96 97 93 88 83 82 81 75 66 55 43 39 35 20 12 6 6 7 17 47 61 71 59 42 8 10 24 40 32 30
69 81 74 80 95 97 98 98 62 72 80 95 98 100 98 99 94 88 82 81 79 66 55 42 41 31 16 10 5 6 6 24 57 68 75 77 60 22 8 14 41 34 36
70 81 86 95 97 100 100 81 81 91 96 100 100 100 100 100 97 88 87 85 76 64 53 47 42 26 14 7 6 7 6 21 53 72 78 84 79 46 9 10 33 38 35
89 95 98 100 100 100 97 92 100 98 100 100 100 100 100 98 94 91 91 82 70 62 48 47 38 22 12 6 7 8 6 16 48 67 90 87 87 62 24 9 15 40 35
96 98 99 98 98 99 100 100 100 100 100 100 100 100 100 100 93 94 88 74 67 55 49 43 29 18 8 6 8 8 7 9 38 54 86 89 82 90 45 12 10 29 40
100 99 99 100 100 100 100 100 100 100 100 100 100 100 100 100 99 94 82 71 64 54 49 37 23 13 7 10 10 8 7 12 29 46 80 79 88 86 48 24 9 12 38
98 98 98 99 100 100 100 100 100 100 100 100 100 100 100 100 97 89 77 68 60 54 42 28 17 9 9 10 10 8 10 18 29 46 78 85 86 84 83 22 16 9 17
100 100 100 100 100 100 100 100 100 100 100 100 100 100 100 99 94 85 73 65 55 49 33 20 13 8 8 10 10 8 11 21 40 51 73 87 87 89 85 46 20 10 11
100 100 100 100 100 100 100 100 100 100 100 100 100 100 100 100 94 81 69 60 53 35 22 14 9 8 10 10 10 7 13 29 44 55 70 83 84 86 88 81 22 15 10
Wind_Speed
36 37 36 35 35 34 34 35 35 34 35 37 39 41 41 44 46 48 50 51 52 52 52 52 53 54 56 57 61 64 68 72 78 82 86 89 94 99 106 113 119 115 103
37 37 38 35 34 34 35 35 35 35 36 38 41 42 43 46 47 50 51 52 53 53 54 55 56 56 57 60 63 68 72 77 83 89 94 95 96 105 112 118 113 98 79
37 37 36 35 34 35 35 35 36 36 37 40 42 43 45 47 49 51 53 54 55 55 57 57 56 57 60 63 67 72 76 80 86 93 99 103 109 113 113 107 92 83 72
36 35 34 34 35 36 36 37 36 36 39 42 42 45 46 49 51 53 55 55 56 57 57 55 58 59 61 65 69 74 79 84 88 92 100 113 122 122 113 82 74 68 61
39 35 32 34 36 36 35 37 37 40 41 42 43 46 48 50 51 54 54 55 56 56 55 57 59 60 62 67 73 76 81 88 91 96 105 115 115 102 91 80 62 56 48
39 38 33 32 34 36 35 38 38 40 41 43 45 46 49 50 53 52 54 54 55 56 57 60 59 62 66 71 75 80 86 88 94 103 113 114 100 85 81 75 57 45 34
38 38 34 32 34 35 35 37 38 39 41 43 46 49 50 51 50 53 53 53 56 56 59 60 61 66 70 74 78 83 86 91 99 108 112 100 83 77 76 65 48 34 28
37 38 36 34 35 34 35 37 36 39 41 44 49 50 50 50 52 54 54 55 56 58 59 60 64 68 72 76 80 84 88 95 103 110 101 84 74 74 67 55 41 24 22
39 39 35 35 36 35 37 37 38 41 44 48 49 50 50 50 53 53 55 56 57 59 59 62 66 69 73 77 81 84 91 100 107 103 86 73 71 69 57 43 30 15 18
37 40 37 37 40 39 39 39 40 43 48 47 48 50 48 50 51 52 55 58 60 60 61 64 67 70 75 77 80 86 94 102 103 90 73 68 67 63 49 32 20 11 15
38 40 42 42 40 41 41 42 42 47 46 47 49 49 48 50 51 53 56 58 60 61 63 65 68 72 75 77 81 89 97 103 93 77 68 62 62 54 39 24 10 10 16
46 42 42 45 44 42 44 45 44 47 47 49 49 49 49 51 52 56 57 58 60 62 63 66 70 73 74 77 83 92 98 95 81 68 62 56 55 48 31 12 8 13 14
47 45 44 45 44 47 47 47 51 47 48 47 49 49 50 52 54 56 56 58 61 61 64 67 70 71 74 78 85 93 97 84 71 61 57 51 49 38 17 7 9 12 10
46 45 48 50 50 49 51 53 48 46 46 48 48 49 50 52 54 54 56 59 59 61 65 67 69 70 74 79 87 91 90 75 61 54 53 45 42 26 12 7 10 9 8
43 44 49 51 52 50 53 53 47 46 48 47 48 49 51 53 53 54 56 58 59 63 63 66 67 70 74 81 88 86 78 69 52 48 47 42 36 21 12 9 11 8 8
49 47 50 52 53 53 50 49 46 46 47 46 47 50 52 52 52 53 55 57 61 61 62 64 67 71 76 82 87 80 67 63 48 41 44 41 33 20 12 12 12 8 7
51 53 56 56 50 49 49 46 43 45 45 45 48 51 51 51 52 53 56 59 59 60 62 64 67 72 77 83 83 70 60 54 45 39 42 39 31 20 12 16 14 10 7
57 55 55 55 51 53 48 44 40 43 43 46 50 50 49 51 52 53 56 58 58 59 61 64 67 73 79 84 77 64 55 43 39 40 37 35 31 22 14 18 18 13 8
61 60 58 50 49 47 43 38 42 42 45 49 49 49 50 51 52 54 57 58 57 59 61 64 68 73 80 81 69 59 54 35 33 37 36 30 31 22 16 19 21 18 12
57 52 48 46 46 42 40 42 43 43 47 46 48 49 51 52 53 55 56 56 56 58 61 65 69 74 81 74 63 56 53 31 28 33 35 32 26 23 16 18 25 22 16
47 47 45 49 46 43 41 44 44 47 45 45 49 50 51 51 52 55 54 54 56 57 60 65 69 74 79 67 59 55 52 29 24 29 32 33 28 23 17 16 24 26 22
44 42 44 48 48 46 45 45 43 43 43 47 47 49 49 51 53 51 51 53 54 56 60 64 69 73 73 63 56 55 50 33 23 28 31 31 28 23 19 16 22 29 27
34 37 42 45 43 45 43 40 40 40 46 45 46 48 50 50 50 49 50 52 53 56 60 63 68 69 64 58 56 55 47 35 28 30 32 33 26 22 17 15 19 29 32
33 35 39 43 42 38 41 41 39 43 43 44 46 47 48 49 48 48 50 51 53 57 59 62 64 63 57 55 54 53 40 33 30 30 32 33 28 23 18 16 18 25 33
35 38 39 39 39 44 38 37 38 40 42 44 45 45 47 47 47 48 50 50 53 56 57 60 62 59 53 52 52 50 35 28 26 28 30 26 26 22 17 16 14 24 32
37 36 38 39 39 34 34 36 38 41 43 43 43 45 45 44 46 48 49 51 54 55 56 59 60 55 52 52 51 44 32 25 24 28 28 26 23 21 17 15 14 22 30
Wind_Direction
268 274 278 279 277 279 280 279 280 280 283 288 289 292 295 298 300 303 306 306 304 304 304 303 302 302 301 300 299 299 300 302 303 302 302 303 303 303 303 302 301 298 294
268 273 278 278 278 278 278 280 278 279 285 287 289 293 296 299 300 303 304 304 304 304 304 305 304 304 303 301 301 302 304 306 306 305 305 304 303 304 306 304 301 296 288
267 272 277 279 278 279 277 276 279 284 284 285 288 293 295 298 300 301 303 304 304 304 305 306 306 305 305 304 304 305 307 307 307 308 309 309 309 306 308 305 299 289 281
270 273 276 275 274 275 276 279 282 282 282 286 290 294 297 298 301 302 304 304 304 305 306 307 307 307 306 306 306 307 308 309 309 310 313 316 316 313 310 307 302 289 278
271 273 271 272 274 274 276 278 279 280 284 287 290 293 297 299 298 302 304 305 305 306 306 308 308 307 306 307 308 309 310 310 313 315 317 317 316 313 312 313 305 292 276
268 272 273 272 271 272 274 274 277 281 284 287 291 294 297 298 301 302 304 305 306 307 308 309 308 307 308 309 310 312 313 315 318 321 321 320 317 314 313 312 308 295 265
266 271 273 270 270 272 272 275 279 282 285 290 292 296 299 300 301 303 304 305 307 307 309 309 308 309 310 312 313 314 317 319 322 323 323 321 318 317 317 313 309 294 255
272 274 275 275 273 272 274 278 282 285 287 291 295 297 299 300 303 304 305 306 307 308 309 309 310 311 312 314 316 318 321 324 325 326 324 321 320 321 319 313 308 286 236
271 276 274 276 276 274 275 280 284 285 288 293 294 297 300 301 303 304 306 307 307 308 309 310 311 313 314 317 319 322 326 328 328 326 324 322 322 324 320 314 305 274 220
268 271 273 275 277 277 275 279 283 285 290 292 295 297 298 301 303 305 307 307 307 308 310 311 313 314 317 320 323 325 328 330 329 327 326 324 324 326 320 312 297 246 205
268 269 274 275 275 278 277 277 284 289 289 293 295 296 298 301 304 306 308 306 306 308 309 312 314 316 320 323 325 327 329 330 329 328 327 326 326 328 322 309 270 221 201
272 275 274 277 277 278 276 276 284 286 287 293 294 296 299 302 305 308 308 307 307 308 311 314 315 318 322 325 328 330 332 331 331 330 329 327 329 329 321 293 236 205 208
274 276 276 278 282 283 276 279 284 282 287 291 294 297 299 302 305 307 308 308 308 310 313 314 318 321 325 328 330 332 332 331 331 331 331 328 331 330 317 270 210 203 229
276 281 280 279 285 285 281 282 282 281 286 290 294 297 299 302 305 307 308 309 309 311 313 317 320 323 327 330 331 334 331 333 332 332 334 331 334 330 310 253 201 216 242
279 287 289 288 285 283 286 285 276 280 287 290 293 296 299 303 305 307 308 308 310 311 315 319 322 326 328 331 333 333 330 334 332 333 335 334 335 326 304 226 212 228 251
281 286 287 289 287 284 285 280 274 279 285 289 292 296 300 302 305 307 307 308 310 313 318 320 324 327 330 333 334 332 332 333 330 336 337 337 335 323 292 222 223 233 256
275 282 283 287 286 282 282 272 271 278 284 287 292 296 300 302 305 306 307 308 311 315 320 322 326 329 331 335 333 332 334 330 328 335 336 339 334 320 280 226 227 230 251
275 277 283 283 283 281 270 267 275 280 282 285 291 297 300 302 305 306 307 308 312 317 320 323 327 330 333 336 331 333 335 324 324 327 333 336 336 323 281 231 227 229 235
275 278 282 282 277 269 267 272 275 278 279 285 292 298 299 302 303 305 307 309 314 318 320 324 328 331 335 334 331 333 335 317 319 324 332 331 333 323 291 238 227 227 224
274 274 273 274 271 264 265 270 272 274 280 288 293 296 297 300 302 305 307 310 315 318 321 325 328 332 336 333 331 332 333 316 316 326 331 334 329 324 295 248 227 225 220
266 266 268 265 258 259 263 264 268 276 284 290 294 293 298 300 301 304 307 312 317 319 322 326 328 334 335 330 331 331 329 317 314 326 327 331 334 326 303 261 230 224 219
263 265 264 261 259 258 261 265 276 281 287 292 292 294 297 298 301 304 308 313 316 320 324 327 330 334 333 330 331 330 326 320 312 321 322 325 323 327 316 268 235 223 221
263 262 261 259 257 257 265 277 277 285 289 289 290 293 294 298 301 305 310 314 317 322 325 329 332 332 329 331 331 329 322 316 309 314 318 322 321 319 311 282 243 224 218
267 266 263 261 263 273 275 276 282 288 287 288 289 291 294 298 301 306 311 314 319 323 327 330 333 330 328 330 331 327 317 309 306 309 315 315 315 312 313 299 241 227 217
266 267 267 271 268 272 273 278 285 286 286 287 288 291 296 299 303 307 313 316 320 324 327 330 331 328 329 330 330 325 315 302 293 300 309 309 311 309 301 294 258 225 217
263 268 272 270 268 272 279 287 287 286 285 287 288 294 298 301 306 311 312 317 323 326 327 329 328 327 330 331 329 326 316 302 297 304 310 318 315 309 295 287 276 225 217